Location: Caltech
(34.1382°N, 118.1253°W)
Time: 08:56:08
(UTC-08:00)

Cosmos 1484 Rocket - Visible Passes

Search period start: 14 December 2017 00:00
Search period end: 24 December 2017 00:00
Orbit: 508 x 560 km, 97.3° (Epoch: 13 December)

Date Brightness Start Highest point End Pass type
(mag) Time Alt. Az. Time Alt. Az. Time Alt. Az.
14 Dec 2.9 05:57:21 10° NNE 06:01:16 78° ESE 06:05:03 10° S visible
14 Dec 5.6 18:11:16 10° SW 18:14:19 21° W 18:17:23 10° NW visible
15 Dec 3.4 05:48:20 10° NNE 05:52:10 58° E 05:55:54 10° S visible
15 Dec 5.2 18:01:47 10° SSW 18:05:11 27° W 18:08:38 10° NW visible
16 Dec 4.1 05:39:23 10° NNE 05:43:04 42° E 05:46:40 10° S visible
16 Dec 4.7 17:52:25 10° SSW 17:56:05 35° W 17:59:46 10° NNW visible
17 Dec 4.7 05:30:28 10° NNE 05:33:57 32° E 05:37:21 10° SSE visible
17 Dec 4.1 17:43:08 10° S 17:46:58 45° W 17:50:51 10° NNW visible
18 Dec 5.2 05:21:38 10° NE 05:24:49 24° E 05:27:57 10° SSE visible
18 Dec 3.5 17:33:56 10° S 17:37:53 61° W 17:41:52 10° NNW visible
19 Dec 5.6 05:12:55 10° NE 05:15:41 19° E 05:18:24 10° SE visible
19 Dec 3.0 17:24:48 10° S 17:28:48 81° W 17:32:50 10° NNW visible
20 Dec 6.0 05:04:23 10° ENE 05:06:31 14° E 05:08:39 10° SE visible
20 Dec 2.8 17:15:44 10° SSE 17:19:44 77° ENE 17:23:45 10° N visible
21 Dec 6.2 04:56:20 10° ENE 04:57:22 11° E 04:58:24 10° ESE visible
22 Dec 2.9 06:19:12 10° N 06:22:54 49° WNW 06:26:31 10° SSW visible
22 Dec 6.4 18:35:12 10° WSW 18:36:13 11° W 18:37:14 10° WNW visible
23 Dec 2.6 06:10:03 10° N 06:13:50 67° WNW 06:17:32 10° SSW visible
23 Dec 6.1 18:24:53 10° SW 18:27:03 14° W 18:29:14 10° WNW visible
